www.pogodaiklimat.ru

Погода и климат >> Архив погоды >> Австралия >> Fitzroy Crossing Aero


ПОГОДА в Fitzroy Crossing Aero

  • Прогноз погоды в Fitzroy Crossing Aero
  • Монитор погоды в Fitzroy Crossing Aero
  • Климат города

АРХИВ ПОГОДЫ в Fitzroy Crossing Aero

Время (UTC), дата Ветер
(напр.,м/с)
 
Видим.   Явления Облачность Т
(С)
Тd
(С)
f
(%)
Тe
(С)
Тes
(С)
Комфортность P
(гПа)
Po
(гПа)
Тmin
(С)
Tmax
(С)
R
(мм)
R24
(мм)
S
(см)
01 16.09 ЮВ 6 н/о н/о +31.5 +0.8 14 +29 +29 жарко 1012.8 999.7 +19.7
03 16.09 В 5 н/о н/о +36.1 -0.3 10 +32 +32 жарко 1011.2 998.2
04 16.09 В 5 н/о н/о +36.8 -1.2 9 +33 +33 жарко 1010.0 997.0
06 16.09 СВ 4 н/о н/о +39.1 -1.1 8 +35 +35 очень
жарко
1007.9 994.9
07 16.09 С 2 н/о н/о +38.6 -1.5 8 +35 +35 очень
жарко
1007.5 994.5
09 16.09 СВ 1 н/о н/о +37.1 -2.6 8 +33 +33 жарко 1007.9 994.9
10 16.09 Ю 3 н/о н/о +33.2 -1.2 11 +30 +30 жарко 1008.3 995.3
12 16.09 ЮВ 4 н/о н/о +30.2 +0.7 15 +27 +27 жарко 1009.7 996.7
13 16.09 Ю 3 н/о н/о +28.0 +1.5 18 +26 +26 жарко 1009.9 996.9 +40.0
15 16.09 СЗ 2 н/о н/о +24.5 +2.0 23 +23 +23 комфорт 1009.6 996.6
16 16.09 СЗ 3 н/о н/о +24.9 +1.1 21 +24 +24 комфорт 1009.3 996.3
18 16.09 С 3 н/о н/о +24.8 +7.0 32 +25 +25 комфорт 1009.4 996.4
19 16.09 С 5 н/о н/о +24.4 +8.4 36 +25 +25 комфорт 1009.5 996.5
21 16.09 штиль 0 н/о н/о +22.4 +9.2 43 +24 +24 комфорт 1010.5 997.5
22 16.09 ЮВ 3 н/о н/о +23.1 +9.1 41 +25 +25 комфорт 1011.2 998.2
00 17.09 С 2 н/о н/о +30.6 +11.1 30 +31 +31 жарко 1012.5 999.4
01 17.09 СВ 4 н/о н/о +32.8 +10.2 25 +32 +32 жарко 1012.5 999.4 +22.1
03 17.09 С 7 н/о н/о +37.8 +6.7 15 +35 +35 очень
жарко
1011.1 998.1
04 17.09 С 5 н/о н/о +38.2 +6.0 14 +36 +36 очень
жарко
1010.0 997.0
06 17.09 СЗ 5 н/о н/о +37.3 +5.3 14 +35 +35 очень
жарко
1008.4 995.4
07 17.09 СЗ 2 н/о н/о +38.7 +5.4 13 +36 +36 очень
жарко
1008.1 995.1
09 17.09 З 2 н/о н/о +36.0 +5.3 15 +33 +33 жарко 1008.3 995.3
10 17.09 СЗ 4 н/о н/о +31.7 +5.3 19 +30 +30 жарко 1008.9 995.9
12 17.09 СЗ 4 н/о н/о +27.7 +5.9 25 +27 +27 жарко 1010.3 997.3
13 17.09 СЗ 4 н/о н/о +25.8 +6.4 29 +25 +25 комфорт 1010.7 997.7 +39.8
15 17.09 СЗ 4 н/о н/о +26.2 +7.7 31 +26 +26 жарко 1011.1 998.1
16 17.09 СЗ 4 н/о н/о +25.3 +9.2 36 +26 +26 жарко 1010.7 997.7
18 17.09 С 4 н/о н/о +23.1 +13.8 56 +27 +27 душно 1010.2 997.2
19 17.09 С 4 н/о н/о +22.1 +15.0 64 +26 +26 душно 1010.0 997.0
21 17.09 С 2 н/о н/о +22.1 +15.2 65 +26 +26 душно 1011.3 998.3
22 17.09 С 3 н/о н/о +22.6 +15.9 66 +27 +27 душно 1012.2 999.1
00 18.09 СЗ 7 н/о н/о +29.3 +14.3 40 +31 +31 жарко 1013.3 1000.2
01 18.09 З 6 н/о н/о +30.5 +12.4 33 +31 +31 жарко 1013.7 1000.6 +21.6
03 18.09 ЮЗ 4 н/о н/о +34.8 +9.9 22 +34 +34 очень
жарко
1012.2 999.1
04 18.09 Ю 3 н/о н/о +36.2 +5.5 15 +34 +34 очень
жарко
1010.9 997.9
06 18.09 Ю 3 н/о н/о +38.0 +3.7 12 +35 +35 очень
жарко
1008.6 995.6
07 18.09 З 3 н/о н/о +38.2 +1.3 10 +35 +35 очень
жарко
1008.1 995.1
09 18.09 ЮЗ 3 н/о н/о +35.9 +0.9 11 +32 +32 жарко 1008.6 995.6
10 18.09 З 2 н/о н/о +31.9 +1.1 14 +29 +29 жарко 1009.2 996.2
12 18.09 С 2 н/о н/о +28.0 +3.0 20 +26 +26 жарко 1010.8 997.8
13 18.09 С 2 н/о н/о +27.9 +3.6 21 +26 +26 жарко 1011.0 998.0 +38.8
15 18.09 СЗ 3 н/о н/о +24.4 +3.7 26 +24 +24 комфорт 1011.4 998.4
16 18.09 ЮЗ 3 н/о н/о +26.6 +0.4 18 +25 +25 комфорт 1011.5 998.5
18 18.09 ЮЗ 3 н/о н/о +23.0 +0.8 23 +22 +22 комфорт 1011.2 998.2
19 18.09 Ю 3 н/о н/о +22.3 +0.8 24 +22 +22 комфорт 1011.1 998.1
21 18.09 Ю 5 н/о н/о +22.7 +1.1 24 +22 +22 комфорт 1012.8 999.7
22 18.09 Ю 4 н/о н/о +22.0 +1.1 25 +22 +22 комфорт 1013.7 1000.6
00 19.09 ЮВ 5 н/о н/о +27.8 +0.5 17 +26 +26 жарко 1014.5 1001.4
01 19.09 ЮВ 6 н/о н/о +30.0 -0.4 14 +27 +27 жарко 1014.4 1001.3 +21.8
03 19.09 ЮВ 5 н/о н/о +33.8 -0.7 11 +30 +30 жарко 1012.9 999.8
04 19.09 ЮВ 8 н/о н/о +35.1 -1.1 10 +31 +31 жарко 1011.3 998.3
06 19.09 ЮВ 5 н/о н/о +36.3 -1.6 9 +32 +32 жарко 1009.2 996.2
07 19.09 ЮВ 5 н/о н/о +36.5 -1.4 9 +33 +33 жарко 1008.7 995.7
09 19.09 Ю 5 н/о н/о +34.3 -1.7 10 +31 +31 жарко 1009.3 996.3
10 19.09 Ю 5 н/о н/о +32.6 -1.7 11 +29 +29 жарко 1010.0 997.0
12 19.09 Ю 6 н/о н/о +30.2 -3.5 11 +27 +27 жарко 1011.8 998.7
13 19.09 Ю 7 н/о н/о +29.4 -4.1 11 +26 +26 жарко 1012.2 999.1 +37.4
15 19.09 Ю 5 н/о н/о +27.1 -3.7 13 +24 +24 комфорт 1012.0 998.9
16 19.09 Ю 4 н/о н/о +26.2 -3.4 14 +24 +24 комфорт 1011.2 998.2
18 19.09 Ю 7 н/о н/о +25.6 -1.2 17 +24 +24 комфорт 1011.2 998.2
19 19.09 Ю 5 н/о н/о +24.7 -0.4 19 +23 +23 комфорт 1011.6 998.6
21 19.09 ЮВ 3 н/о н/о +22.1 +0.6 24 +22 +22 комфорт 1012.6 999.5
22 19.09 Ю 4 н/о н/о +22.5 +0.9 24 +22 +22 комфорт 1013.0 999.9
00 20.09 ЮВ 8 н/о н/о +27.4 +0.2 17 +25 +25 комфорт 1014.5 1001.4
01 20.09 ЮВ 8 н/о н/о +28.5 +1.1 17 +26 +26 жарко 1014.3 1001.2 +22.1
03 20.09 ЮВ 7 н/о н/о +29.9 +1.4 16 +27 +27 жарко 1013.1 1000.0
04 20.09 ЮВ 7 н/о н/о +30.0 +0.6 15 +27 +27 жарко 1012.1 999.0
06 20.09 ЮВ 7 н/о н/о +31.1 +0.5 14 +28 +28 жарко 1011.1 998.1
07 20.09 ЮВ 8 н/о н/о +30.5 +1.0 15 +28 +28 жарко 1010.2 997.2
09 20.09 Ю 8 н/о н/о +28.9 -0.3 15 +26 +26 жарко 1011.5 998.5
10 20.09 Ю 8 н/о н/о +27.7 -0.4 16 +25 +25 комфорт 1012.6 999.5
12 20.09 ЮВ 7 н/о н/о +25.6 +0.3 19 +24 +24 комфорт 1015.6 1002.5
13 20.09 ЮВ 6 н/о н/о +24.2 +2.9 25 +23 +23 комфорт 1015.7 1002.6 +32.8
15 20.09 В 4 н/о н/о +21.8 +5.7 35 +22 +22 комфорт 1016.0 1002.9
16 20.09 В 4 н/о н/о +21.7 +6.4 37 +22 +22 комфорт 1015.2 1002.1
18 20.09 ЮВ 3 н/о н/о +20.9 +7.9 43 +23 +23 комфорт 1015.0 1001.9
19 20.09 В 3 н/о н/о +20.8 +8.4 45 +23 +23 комфорт 1014.7 1001.6
21 20.09 В 6 н/о н/о +21.5 +5.8 36 +22 +22 комфорт 1014.8 1001.7
22 20.09 В 4 н/о н/о +21.1 +5.9 37 +22 +22 комфорт 1015.8 1002.7
00 21.09 В 6 н/о н/о +26.3 +4.7 25 +25 +25 комфорт 1016.8 1003.7
01 21.09 В 7 н/о н/о +28.5 +1.9 18 +26 +26 жарко 1016.7 1003.6 +20.6
03 21.09 СВ 7 н/о н/о +32.3 +0.4 13 +29 +29 жарко 1015.1 1002.0
04 21.09 СВ 6 н/о н/о +33.5 +0.2 12 +30 +30 жарко 1014.0 1000.9
06 21.09 С 4 н/о н/о +34.9 +1.3 12 +32 +32 жарко 1012.2 999.1
07 21.09 СВ 4 н/о н/о +35.6 +1.8 12 +32 +32 жарко 1012.2 999.1
09 21.09 В 3 н/о н/о +33.3 +2.2 14 +30 +30 жарко 1012.6 999.5
10 21.09 ЮВ 2 н/о н/о +30.3 +3.4 18 +28 +28 жарко 1013.3 1000.2
12 21.09 В 3 н/о н/о +28.1 +3.0 20 +26 +26 жарко 1014.8 1001.7
13 21.09 ЮВ 3 н/о н/о +27.8 +2.8 20 +26 +26 жарко 1015.0 1001.9 +36.1
15 21.09 В 6 н/о н/о +28.9 -1.2 14 +26 +26 жарко 1015.0 1001.9
16 21.09 В 6 н/о н/о +27.8 -4.2 12 +25 +25 комфорт 1014.9 1001.8
18 21.09 В 5 н/о н/о +26.5 -5.2 12 +24 +24 комфорт 1014.9 1001.8
19 21.09 В 4 н/о н/о +25.9 -5.6 12 +23 +23 комфорт 1015.0 1001.9
21 21.09 ЮВ 3 н/о н/о +22.9 -4.2 16 +21 +21 комфорт 1016.5 1003.4
22 21.09 Ю 2 н/о н/о +21.9 -3.5 18 +21 +21 комфорт 1017.3 1004.2
00 22.09 В 5 н/о н/о +27.4 -5.6 11 +24 +24 комфорт 1018.4 1005.3
01 22.09 В 6 н/о н/о +29.5 -5.3 10 +26 +26 жарко 1018.5 1005.4 +21.8
03 22.09 СВ 7 н/о н/о +34.1 -4.8 8 +30 +30 жарко 1016.8 1003.7
04 22.09 В 6 н/о н/о +35.5 -5.5 7 +31 +31 жарко 1015.6 1002.5
06 22.09 С 3 н/о н/о +36.9 -4.5 7 +33 +33 жарко 1013.3 1000.2
07 22.09 В 4 н/о н/о +37.1 -2.6 8 +33 +33 жарко 1012.8 999.7
09 22.09 В 3 н/о н/о +35.3 -2.3 9 +31 +31 жарко 1013.2 1000.1
10 22.09 Ю 3 н/о н/о +31.4 -0.3 13 +28 +28 жарко 1013.9 1000.8
12 22.09 Ю 4 н/о н/о +29.4 +0.1 15 +27 +27 жарко 1015.2 1002.1
13 22.09 ЮВ 4 н/о н/о +28.1 -0.1 16 +26 +26 жарко 1015.5 1002.4 +37.9
15 22.09 ЮВ 3 н/о н/о +24.3 -0.1 20 +23 +23 комфорт 1015.4 1002.3
16 22.09 штиль 0 н/о н/о +21.4 +1.7 27 +21 +21 комфорт 1014.9 1001.8
18 22.09 С 2 н/о н/о +17.4 +0.1 31 +18 +18 1014.5 1001.4
19 22.09 С 1 н/о н/о +16.8 +0.5 33 +18 +18 1014.3 1001.2
21 22.09 В 2 н/о н/о +17.6 +0.3 31 +18 +18 1015.1 1002.0
22 22.09 В 3 н/о н/о +18.2 +2.1 34 +19 +19 1015.4 1002.3

 

Местоположение метеостанции Fitzroy Crossing Aero (Западная Австралия, Австралия): широта -18.18 долгота 125.56 высота над уровнем моря 115 м.

В архиве по умолчанию представлена погода в Fitzroy Crossing Aero за последнюю неделю. Архивные данные за месяц целиком и за предыдущие месяцы, начиная с января 2011 года, Вы можете получить, выбрав интересующий диапазон дат из раскрывающегося списка и нажав кнопку "Ввод!".


*Определитесь, кто Вы:
робот инопланетянин человек

Внимание! Время в таблицах - всемирное. Для получения местного времени необходимо прибавить поправку, которая в Fitzroy Crossing Aero равна 8 ч.

Смотрите также архив погоды в соседних городах и на ближайших метеорологических станциях:

Погода в Curtin Aero (Западная Австралия, Австралия) (196 км)
Погода в Derby Aero (Северная территория, Австралия) (221 км)
Погода в Halls Creek Airport (Западная Австралия, Австралия) (222 км)
Погода в West Roebuck (Западная Австралия, Австралия) (344 км)
Погода в Argyle Aero (Западная Австралия, Австралия) (352 км)
Погода в Broome Airport (Западная Австралия, Австралия) (353 км)
Погода в Adele Island (Западная Австралия, Австралия) (392 км)
Погода в Wyndham Aero (Западная Австралия, Австралия) (406 км)
Погода в Kununurra (Западная Австралия, Австралия) (428 км)
Погода в Kalumburu (Западная Австралия, Австралия) (447 км)

Пояснения к столбцам:

Ветер - указаны скорость ветра в м/с - средняя за 10 мин, порывы в срок и между сроками (в фигурных скобках) и направление, откуда дует ветер: С - северный, СВ - северо-восточный, В - восточный, ЮВ - юго-восточный, Ю - южный, ЮЗ - юго-западный, З - западный, СЗ - северо-западный.
Видимость - горизонтальная дальность видимости в метрах или километрах. При видимости от 1 до 10 км при отсутствии осадков обычно наблюдается дымка, при ухудшении видимости до 1 км и менее - туман. В сухую погоду видимость может ухудшаться дымом, пылью или мглою.
Явления - указаны атмосферные явления, наблюдавшиеся в срок или в последний час перед сроком; фигурными скобками обозначены явления, наблюдавшиеся между сроками (за 1-3 часа до срока); квадратными скобками обозначены град или гололедные отложения с указанием их диаметра в мм.
Облачность - указаны через наклонную черту общая и нижняя облачность в баллах и высота нижней границы облаков в метрах; квадратными скобками обозначены формы облаков: Ci - перистые, Cs - перисто-слоистые, Cc - перисто-кучевые, Ac - высококучевые, As - высокослоистые, Sc - слоисто-кучевые, Ns - слоисто-дождевые, Cu - кучевые, Cb - кучево-дождевые. Подробнее классификацию облаков см. в Атласе облаков (PDF).
T - Температура воздуха - температура, измеренная на высоте 2 м над землей.
Td - Температура точки росы - температура, при понижении до которой содержащийся в воздухе водяной пар достигнет насыщения.
f - Относительная влажность воздуха - влажноcть воздуха, измеренная на высоте 2 м над землей.
Te - Эффективная температура - температура, которую ощущает одетый по сезону человек в тени. Характеристика душности погоды. При расчете учитывается влияние влажности воздуха и скорости ветра на теплоощущения человека.
Tes - Эффективная температура на солнце - температура, которую ощущает человек, с поправкой на солнечный нагрев. Характеристика знойности погоды. Зависит от высоты солнца над горизонтом, облачности и скорости ветра. Ночью, в пасмурную погоду, а также при ветре 12 м/с и более поправка равна нулю.
P - Атмосферное давление - приведенное к уровню моря атмосферное давление.
Po - Атмосферное давление - измеренное на уровне метеостанции атмосферное давление.
Tmin - Минимальная температура - минимум температуры воздуха на высоте 2 м над землей.
Tmax - Максимальная температура - максимум температуры воздуха на высоте 2 м над землей.
R - Количество осадков - Количество выпавших осадков за период времени, мм. При наведении курсора мыши на число - период времени, за который выпало указанное количество осадков.
R24 - Количество осадков - Количество выпавших осадков за 24 часа, мм.
S - Снежный покров - Высота снежного покрова, см. При наведении курсора мыши на число - состояние снежного покрова и степень покрытия местности в баллах.